sat.trackr.live / text

‹ back to catalog

STARLINK-31374

NORAD 59404 · 2024-064G

PAYLOAD ACTIVE UNKNOWN

§ Identity

Operator
Country
US
Launch date
2024-04-05
Launch site
AFETR
Launch vehicle
Mass (kg)
RCS (m²)

Purposes: comms

External: N2YO · Heavens-Above · Gunter

§ Orbital elements

Epoch: 2026-09-21T07:01:18.562080Z

Period
94.27 min
Inclination
43.0008°
Eccentricity
0.0001160
Mean motion
15.27580234 rev/d
Perigee alt
482.3 km
Apogee alt
483.8 km
Semi-major
6,861.2 km
B*
2.7097e-5
RAAN
340.4488°
Arg perigee
234.4103°
Mean anomaly
125.6641°
Rev number
13,947

§ Raw data

STARLINK-313741 59404U 24064G   26264.29257595  .00000484  00000+0  27097-4 0  99962 59404  43.0008 340.4488 0001160 234.4103 125.6641 15.27580234139471

JSON: /api/v1/satellites/59404 · /tle

For live sub-satellite position, see the globe view (requires WebGL).

§ Visibility from observer

Set your observer location to see the next 7 days of passes ≥ 10°. The values pass through the URL so the page stays shareable.

No JS? Fill the form by hand. The geolocation button needs JavaScript.